Flag for Austria Past Weather in Waidhofen an der Thaya, Lower Austria, Austria — Yesterday and Last 2 Weeks

Now
78 °F

Warm.


Feels Like: 79 °F
Forecast: 62 / 80 °F
Wind: 3 mph from Northwest

Location: Retz

Current Time: Jul 30, 2016 at 11:02:07 PM

Latest Report: Jul 30, 2016 at 10:00 PM


Visibility: N/A

Pressure: 29.87 "Hg (28.19 "Hg at 506m altitude)

Humidity: 43%

Dew Point: 54 °F

Location of Waidhofen an der ThayaLocation

Past Weather in Waidhofen an der Thaya — Graph

°F

Waidhofen an der Thaya Temperature Yesterday

Maximum temperature yesterday: 81 °F (at 4:00 PM)
Minimum temperature yesterday: 63 °F (at 6:00 AM)
Average temperature yesterday: 72 °F

High & Low Weather Summary for the Past Weeks

 TemperatureHumidityPressure
High86 °F (Jul 30, 6:00 PM)98% (Jul 22, 2:00 AM)30.23 "Hg (Jul 22, 2:00 AM)
Low56 °F (Jul 16, 6:00 AM)36% (Jul 30, 6:00 PM)29.85 "Hg (Jul 30, 6:00 PM)
Average71 °F69%30.01 "Hg
* Reported Jul 15 10:00 PM — Jul 30 10:00 PM, Waidhofen an der Thaya, Weather by CustomWeather, © 2016

Note: Actual official high and low records may vary slightly from our data, if they occured in-between our weather recording intervals... More about our weather records

Advertising

Waidhofen an der Thaya Weather History for the Previous 24 Hours

Scroll right to see more
 ConditionsComfort  
Time TempWeatherWind HumidityBarometerVisibility
10:00 PM
Sat, Jul 30
78 °FWarm.3 mph43%29.87 "HgN/A
9:00 PM79 °FWarm.3 mph42%29.87 "HgN/A
8:00 PM81 °FPassing clouds.2 mph43%29.86 "Hg19 mi
7:00 PM85 °FPleasantly warm.3 mph38%29.85 "HgN/A
6:00 PM86 °FPleasantly warm.5 mph36%29.85 "HgN/A
5:00 PM84 °FWarm.3 mph40%29.86 "HgN/A
4:00 PM83 °FPleasantly warm.3 mph40%29.87 "HgN/A
3:00 PM85 °FPleasantly warm.3 mph39%29.87 "HgN/A
2:00 PM83 °FScattered clouds.3 mph45%29.89 "Hg22 mi
1:00 PM82 °FWarm.3 mph43%29.90 "HgN/A
12:00 PM80 °FWarm.1 mph49%29.91 "HgN/A
11:00 AM78 °FWarm.2 mph58%29.93 "HgN/A
10:00 AM75 °FMild.2 mph68%29.95 "HgN/A
9:00 AM71 °FMild.2 mph70%29.95 "HgN/A
8:00 AM71 °FPassing clouds.No wind72%29.96 "Hg14 mi
7:00 AM66 °FPartly sunny.3 mph77%29.96 "Hg14 mi
6:00 AM65 °FMild.3 mph75%29.97 "HgN/A
5:00 AM62 °FCool.2 mph87%29.96 "HgN/A
4:00 AM64 °FMild.No wind77%29.96 "HgN/A
3:00 AM65 °FMild.1 mph76%29.96 "HgN/A
2:00 AM66 °FMild.2 mph73%29.96 "HgN/A
1:00 AM70 °FMild.7 mph64%29.96 "HgN/A
12:00 AM70 °FMild.6 mph64%29.96 "HgN/A
11:00 PM
Fri, Jul 29
71 °FMild.5 mph66%29.95 "HgN/A
Weather by CustomWeather, © 2016

See weather overviewHow to use our weather pages